Regional Weather Roundup
Issued by NWS

Home | Current Version | Previous Version | Graphics & Text | Print | Product List | Glossary On
Versions: 1 2 3 4 5 6 7 8 9 10 11 12 13 14 15 16 17 18 19 20 21 22 23 24 25 26 27 28 29 30 31 32 33 34 35 36 37 38 39 40 41 42 43 44 45 46 47 48 49 50
748
ASUS43 KMPX 051601
RWRMN
WEATHER ROUNDUP FOR MINNESOTA
NATIONAL WEATHER SERVICE TWIN CITIES/CHANHASSEN MN
1000 AM CST FRI FEB 05 2016


NOTE: "FAIR" INDICATES FEW OR NO CLOUDS BELOW 12,000 FEET WITH NO
SIGNIFICANT WEATHER AND/OR OBSTRUCTIONS TO VISIBILITY. N/A MEANS
CURRENT SKY AND/OR WEATHER CONDITIONS ARE NOT AVAILABLE.

MNZ060>063-068>070-051700-
   Twin Cities Metro

CITY           SKY/WX    TMP DP  RH WIND       PRES   REMARKS
TWIN CITIES    CLOUDY    12   8  84 SE6       30.33F WCI   3
ST PAUL        MOSUNNY   11   8  88 SE7       30.35F FOG     WCI   0
CRYSTAL        CLOUDY    15  10  80 S8        30.31S WCI   4
BLAINE         PTSUNNY   16  16 100 S9        30.30F WCI   4
LAKEVILLE      CLOUDY    12  12 100 S3        30.32F
EDEN PRAIRIE   CLOUDY    12   9  87 S3        30.31F
SOUTH ST PAUL  CLOUDY    11   8  87 SE3       30.34F FOG
LAKE ELMO      FAIR      12  10  92 S5        30.34S WCI   4
$$
MNZ001>005-007-008-013>017-022>024-027-028-051700-
   Northwest Minnesota

CITY           SKY/WX    TMP DP  RH WIND       PRES   REMARKS
BEMIDJI        MOSUNNY   16  11  80 S8        30.14S WCI   6
HALLOCK        SUNNY     16  10  79 SE7       30.15R WCI   6
ROSEAU         CLOUDY    18  12  79 S6        30.14R WCI   9
WARROAD        CLOUDY    16  10  79 CALM      30.14S
THIEF RVR FALL SUNNY     16  10  79 SE6       30.13S WCI   7
CROOKSTON      CLOUDY    18  16  93 SW5       30.15R WCI  11
FOSSTON        CLOUDY    18  12  79 S7        30.13F WCI   8
DETROIT LAKES  CLOUDY    23  19  86 S9        30.14S WCI  13
MOORHEAD       CLOUDY    19  18  93 S12       30.16S WCI   7
PARK RAPIDS    CLOUDY    16  11  80 S7        30.14F WCI   6
MAHNOMEN       CLOUDY    20  15  81 S10       30.13R WCI   9
$$
MNZ006-009>011-018-025>026-051700-
   North Central Minnesota

CITY           SKY/WX    TMP DP  RH WIND       PRES   REMARKS
BAUDETTE       CLOUDY    17  11  77 S6        30.13F WCI   9
FLAG ISLAND    PTSUNNY   12   9  85 SE3       30.14S
INTL FALLS     CLOUDY    15  10  80 VRB5      30.17F HAZE    WCI   8
WASKISH        CLOUDY    19  12  73 S5        30.14S WCI  13
LONGVILLE      CLOUDY    16  10  79 S9        30.17F WCI   4
GRAND RAPIDS   CLOUDY    12   7  79 S10       30.19F WCI  -1
CRANE LAKE     CLOUDY    10   9  92 S3        30.23F
ORR            CLOUDY    12   7  79 S5        30.16F WCI   4
COOK           CLOUDY    12   9  85 S5        30.21S WCI   4
WALKER         CLOUDY    15  10  82 S6        30.15F WCI   6
$$
MNZ012-019>021-037-051700-
   Northeast Minnesota

CITY           SKY/WX    TMP DP  RH WIND       PRES   REMARKS
DULUTH         CLOUDY    14   8  77 SW8       30.23S WCI   3
ELY            CLOUDY     7   3  85 CALM      30.21S
HIBBING        CLOUDY     9   6  88 S3        30.21F
EVELETH        MOSUNNY   10   7  85 CALM      30.23S
DULUTH HARBOR  CLOUDY    14   9  79 S5        30.32S WCI   6
TWO HARBORS    CLOUDY    12   9  85 CALM      30.24F
SILVER BAY     CLOUDY     9   3  78 CALM      30.24F
GRAND MARAIS     N/A     18   8  65 SW3       30.30S
G MARAIS ARPRT CLOUDY     9   3  78 CALM      30.19S
$$
MNZ029>031-032-039>041-046>048-054>057-064-051700-
   West Central Minnesota

CITY           SKY/WX    TMP DP  RH WIND       PRES   REMARKS
FERGUS FALLS   LGT SNOW  21  18  86 S9        30.20S WCI  11
WHEATON        CLOUDY    21  18  86 SE9       30.18S WCI  11
MORRIS         CLOUDY    18  14  86 SE13      30.17S WCI   4
ALEXANDRIA     CLOUDY    20  14  77 S13       30.17S WCI   7
ELBOW LAKE     CLOUDY    19  15  82 S13       30.17S WCI   7
WADENA         CLOUDY    18  12  79 S10       30.16S WCI   6
GLENWOOD       MOSUNNY   19  16  86 S12       30.19S WCI   7
APPLETON       CLOUDY    19  14  79 S7        30.20R WCI  10
BENSON         CLOUDY    19  12  73 S9        30.20S WCI   9
ORTONVILLE     CLOUDY    19  14  79 SE6       30.17S WCI  11
MADISON        CLOUDY    27  14  59 SW13      30.19S WCI  16
WILLMAR        FAIR      19  16  86 S10       30.24F WCI   8
$$
MNZ033>034-036-042>043-049>051-058-059-051700-
   Central Minnesota

CITY           SKY/WX    TMP DP  RH WIND       PRES   REMARKS
ST CLOUD       CLOUDY    16  13  88 S9        30.26S WCI   4
SAUK CENTRE    FAIR      18  16  93 S10       30.20F WCI   6
PAYNESVILLE    CLOUDY    20  17  91 S12       30.24S WCI   7
AITKIN         CLOUDY    18   9  68 S10       30.20F WCI   6
PINE RIVER     CLOUDY    16  12  86 S7        30.21S WCI   6
BRAINERD       CLOUDY    16  12  84 S12       30.21S WCI   3
STAPLES        CLOUDY    16  12  86 S8        30.18S WCI   5
LONG PRAIRIE   CLOUDY    18  14  86 SE8       30.20S WCI   7
LITTLE FALLS   CLOUDY    16  12  86 SE7       30.23S WCI   6
LITCHFIELD     CLOUDY    19  18  93 S5        30.26S WCI  13
BUFFALO        CLOUDY    14  12  91 S5        30.30F WCI   6
MAPLE LAKE     CLOUDY    17  15  95 S8        30.28F WCI   6
$$
MNZ037-044-045-052-053-051700-
   East Central Minnesota

CITY           SKY/WX    TMP DP  RH WIND       PRES   REMARKS
PRINCETON        N/A    N/A N/A N/A MISG        N/A
MORA           CLOUDY    12   9  85 S5        30.30R WCI   4
CAMBRIDGE      CLOUDY    16   9  73 S7        30.28S WCI   6
RUSH CITY      CLOUDY     9   7  89 S6        30.31S WCI   0
MOOSE LAKE     CLOUDY    10   5  79 CALM      30.26S
HINCKLEY       FAIR      12  10  92 S3        30.29F
CLOQUET        CLOUDY    14   7  73 S9        30.24S WCI   2
MCGREGOR       CLOUDY    18  12  79 S5        30.23F WCI  11
$$
MNZ071>073-080-081-089-090-097-098-051700-
   Southwest Minnesota

CITY           SKY/WX    TMP DP  RH WIND       PRES   REMARKS
MONTEVIDEO     CLOUDY    19  12  73 SW12      30.21F WCI   7
GRANITE FALLS  CLOUDY    21  17  82 SE12      30.23F WCI   9
CANBY          CLOUDY    29  16  57 SW18G26   30.17R WCI  17
MARSHALL         N/A     24  16  71 SW24      30.17F WCI   8
REDWOOD FALLS  CLOUDY    15  11  83 S12       30.26F WCI   2
OLIVIA         CLOUDY    18  14  86 S9        30.24F WCI   6
PIPESTONE        N/A     23  10  58 S20       30.18S WCI   8
WINDOM         CLOUDY    19  16  86 S10       30.25S WCI   8
WORTHINGTON    CLOUDY    19  14  79 S18G24    30.24F WCI   4
JACKSON        CLOUDY    18  14  86 S15       30.27S WCI   3
TRACY          CLOUDY    25  17  69 S18G25    30.20F WCI  12
SLAYTON        CLOUDY    20  18  89 S20G29    30.20F WCI   5
$$
MNZ065>067-074>077-082>085-091>093-051700-
   South Central Minnesota

CITY           SKY/WX    TMP DP  RH WIND       PRES   REMARKS
MANKATO        CLOUDY    16  12  86 S10       30.31S WCI   3
NEW ULM        CLOUDY    16  14  93 S14       30.29S WCI   1
ST JAMES       CLOUDY    18  16  93 S13       30.31S WCI   4
FAIRMONT       CLOUDY    14  10  85 S13       30.30S WCI   0
GLENCOE        CLOUDY    19  18  96 S6        30.29S WCI  10
FARIBAULT        N/A     14  12  92 S7        30.32F WCI   4
OWATONNA       CLOUDY    16  12  86 S7        30.32S WCI   6
WASECA         CLOUDY    18  14  86 S5        30.34S WCI  11
ALBERT LEA       N/A     18  16  93 S5        30.33S WCI  11
$$
MNZ078>079-086>088-094>096-051700-
   Southeast Minnesota

CITY           SKY/WX    TMP DP  RH WIND       PRES   REMARKS
ROCHESTER      CLOUDY    10  10 100 S6        30.33S WCI   0
RED WING       MOSUNNY   10   7  85 CALM      30.36S FOG
STANTON        CLOUDY    10   7  87 CALM      30.33S
DODGE CENTER   CLOUDY    16  12  86 S3        30.31F
WINONA         MOSUNNY   14  10  85 CALM      30.40R
AUSTIN         MOSUNNY   10   9  92 S5        30.34S WCI   2
PRESTON        CLOUDY    12   8  86 CALM      30.34S FOG
$$
ABBREVIATIONS USED IN REMARKS
   TC - TEMPERATURES IN CELSIUS
  WCI - WIND CHILL INDEX
   HX - HEAT INDEX
  VSB - VISIBILITY
$$




USA.gov is the U.S. government's official web portal to all federal, state and local government web resources and services.